CW6739 Weather Reports


Display with metric or nautical units.
time (UTC)temp
F
wind
direction
speed
MPH
gust
MPH
rain 1hr
in
rain 24hr
in
rain mn
in
humidity
%
barometer
mb
20260505124840 42 195 3.0 5.0 0.00 0.00 0.00 86 1002.8
20260505124337 41 353 2.0 3.0 0.00 0.00 0.00 90 1002.8
20260505123833 42 190 4.0 4.0 0.00 0.00 0.00 85 1002.8
20260505123330 43 171 3.0 7.0 0.00 0.00 0.00 81 1002.7
20260505122826 43 90 3.0 5.0 0.00 0.00 0.00 84 1002.6
20260505122324 42 141 2.0 5.0 0.00 0.00 0.00 85 1002.5
20260505121820 42 66 1.0 5.0 0.00 0.00 0.00 87 1002.6
20260505121317 41 183 2.0 5.0 0.00 0.00 0.00 92 1002.5
20260505120813 41 150 4.0 5.0 0.00 0.00 0.00 92 1002.7
20260505120309 42 180 3.0 6.0 0.00 0.00 0.00 89 1002.8
20260505115808 45 152 6.0 7.0 0.00 0.00 0.00 75 1002.6
20260505115306 45 240 0.0 7.0 0.00 0.00 0.00 76 1002.6
20260505114803 45 70 2.0 8.0 0.00 0.00 0.00 76 1002.5
20260505114300 45 21 2.0 8.0 0.00 0.00 0.00 77 1002.6
20260505113756 44 41 2.0 6.0 0.00 0.00 0.00 78 1002.7
20260505113252 43 149 2.0 5.0 0.00 0.00 0.00 81 1002.7
20260505112748 42 300 1.0 2.0 0.00 0.00 0.00 88 1002.6
20260505112246 42 330 0.0 2.0 0.00 0.00 0.00 88 1002.4
20260505111746 42 180 0.0 1.0 0.00 0.00 0.00 88 1002.6
20260505111242 42 204 0.0 2.0 0.00 0.00 0.00 88 1002.6
20260505110738 42 90 2.0 6.0 0.00 0.00 0.00 87 1002.8
20260505110237 42 148 1.0 6.0 0.00 0.00 0.00 89 1002.8
20260505102212 41 251 1.0 6.0 0.00 0.00 0.00 96 1003.0
20260505101711 41 353 0.0 3.0 0.00 0.00 0.00 95 1002.7
20260505101206 41 30 2.0 3.0 0.00 0.00 0.00 94 1002.9
20260505100703 41 26 0.0 3.0 0.00 0.00 0.00 93 1002.6
20260505100200 42 5 1.0 3.0 0.00 0.00 0.00 92 1002.6
20260505095655 42 23 0.0 2.0 0.00 0.00 0.00 90 1002.5
20260505095153 42 178 3.0 4.0 0.00 0.00 0.00 92 1002.7
20260505094649 41 192 0.0 3.0 0.00 0.00 0.00 95 1002.5
20260505094145 41 346 0.0 3.0 0.00 0.00 0.00 96 1002.6
20260505093642 41 199 5.0 9.0 0.00 0.00 0.00 95 1003.1
20260505093139 41 154 3.0 4.0 0.00 0.00 0.00 95 1002.9
20260505092636 41 270 0.0 5.0 0.00 0.00 0.00 95 1002.7
20260505092135 41 232 0.0 4.0 0.00 0.00 0.00 95 1002.7
20260505091631 41 254 0.0 5.0 0.00 0.00 0.00 95 1002.8
20260505091129 41 180 3.0 3.0 0.00 0.00 0.00 94 1002.6
20260505090627 41 16 4.0 5.0 0.00 0.00 0.00 94 1002.5
20260505090125 41 106 0.0 4.0 0.00 0.00 0.00 94 1002.7
20260505085622 42 283 0.0 4.0 0.00 0.00 0.00 91 1002.5
20260505085120 44 306 1.0 5.0 0.00 0.00 0.00 86 1002.8
20260505084618 49 106 0.0 9.0 0.00 0.00 0.00 66 1002.5
20260505084116 48 149 6.0 8.0 0.00 0.00 0.00 67 1002.5
20260505083613 48 186 7.0 14.0 0.00 0.00 0.00 67 1002.5
20260505083109 49 186 5.0 11.0 0.00 0.00 0.00 68 1002.5
20260505082605 49 65 2.0 10.0 0.00 0.00 0.00 68 1002.5
20260505082103 49 178 3.0 12.0 0.00 0.00 0.00 68 1002.5
20260505081558 48 150 2.0 9.0 0.00 0.00 0.00 68 1002.3
20260505081056 49 156 7.0 17.0 0.00 0.00 0.00 68 1002.4
20260505080552 48 203 1.0 11.0 0.00 0.00 0.00 69 1002.7
20260505080049 48 106 5.0 10.0 0.00 0.00 0.00 69 1002.6
20260505075544 49 161 9.0 15.0 0.00 0.05 0.05 68 1002.7
20260505075042 49 96 5.0 16.0 0.00 0.05 0.05 67 1002.4
20260505074538 48 196 0.0 7.0 0.00 0.05 0.05 69 1002.6
20260505074036 47 291 1.0 4.0 0.00 0.05 0.05 79 1002.6
20260505073533 48 139 4.0 8.0 0.00 0.05 0.05 77 1002.6
20260505073032 50 195 4.0 5.0 0.00 0.05 0.05 68 1002.7
20260505072527 50 169 2.0 12.0 0.00 0.05 0.05 65 1002.7
20260505072023 50 214 11.0 12.0 0.00 0.05 0.05 65 1002.4
20260505071519 50 160 6.0 10.0 0.00 0.05 0.05 66 1002.8
20260505071017 50 152 5.0 16.0 0.00 0.05 0.05 67 1003.0
20260505070514 50 158 5.0 18.0 0.00 0.05 0.05 66 1002.8
20260505070010 50 131 2.0 14.0 0.00 0.05 0.05 67 1002.7
20260505065506 49 196 6.0 11.0 0.00 0.05 0.05 67 1003.0
20260505065003 50 103 2.0 9.0 0.00 0.05 0.05 67 1003.2
20260505064500 50 139 9.0 12.0 0.00 0.05 0.05 66 1003.0
20260505063958 50 71 2.0 9.0 0.00 0.05 0.05 65 1003.0
20260505063455 50 166 4.0 11.0 0.00 0.05 0.05 65 1002.9
20260505062951 50 171 8.0 15.0 0.00 0.05 0.05 65 1002.7
20260505062448 50 171 8.0 13.0 0.00 0.05 0.05 67 1002.8
20260505061945 50 153 6.0 10.0 0.00 0.05 0.05 67 1002.8
20260505061443 49 157 2.0 9.0 0.00 0.05 0.05 68 1003.0
20260505060940 50 206 5.0 12.0 0.00 0.05 0.05 67 1003.0
20260505060437 50 246 5.0 6.0 0.00 0.05 0.05 67 1003.0
20260505055933 50 167 7.0 8.0 0.00 0.05 0.05 67 1003.0
20260505055430 50 147 5.0 11.0 0.00 0.05 0.05 67 1002.9
20260505054926 50 186 5.0 13.0 0.00 0.05 0.05 66 1003.3
20260505054424 50 161 4.0 8.0 0.00 0.05 0.05 66 1003.4
20260505053922 50 80 4.0 6.0 0.00 0.05 0.05 65 1003.1
20260505053418 50 139 2.0 10.0 0.00 0.05 0.05 65 1003.3
20260505052915 51 64 7.0 14.0 0.00 0.05 0.05 64 1003.2
20260505052412 51 145 5.0 19.0 0.00 0.05 0.05 64 1003.5
20260505051910 51 54 1.0 17.0 0.00 0.05 0.05 62 1003.2
20260505051407 51 173 3.0 16.0 0.00 0.05 0.05 64 1003.6
20260505050905 50 32 0.0 11.0 0.00 0.05 0.05 65 1003.6
20260505050403 51 144 5.0 8.0 0.00 0.05 0.05 65 1003.8
20260505041330 52 166 7.0 15.0 0.00 0.05 0.05 63 1004.2
20260505040827 51 183 8.0 14.0 0.00 0.05 0.05 64 1004.1
20260505040325 52 170 6.0 13.0 0.00 0.05 0.05 65 1004.2
20260505035821 51 196 5.0 16.0 0.00 0.05 0.05 65 1004.5
20260505035317 52 218 8.0 14.0 0.00 0.05 0.05 64 1004.6
20260505034815 52 177 11.0 17.0 0.00 0.05 0.05 63 1004.8
20260505034311 53 159 12.0 18.0 0.00 0.05 0.05 62 1004.6
20260505033808 53 197 6.0 21.0 0.00 0.05 0.05 61 1004.8
20260505033305 53 191 5.0 23.0 0.00 0.05 0.05 61 1004.7
20260505032804 55 127 8.0 13.0 0.00 0.05 0.05 60 1004.8
20260505032259 54 155 6.0 18.0 0.00 0.05 0.05 61 1004.8
20260505031756 54 215 6.0 15.0 0.00 0.05 0.05 61 1004.7
20260505031252 54 180 10.0 19.0 0.00 0.05 0.05 61 1005.1
20260505030750 54 191 5.0 18.0 0.00 0.05 0.05 63 1005.2
20260505030246 54 143 9.0 21.0 0.00 0.05 0.05 62 1005.2
20260505025742 54 151 7.0 17.0 0.00 0.05 0.05 61 1005.2
20260505025240 55 150 4.0 15.0 0.00 0.05 0.05 59 1005.4
20260505024738 55 111 4.0 20.0 0.00 0.05 0.05 60 1005.5
20260505024235 56 154 6.0 17.0 0.00 0.05 0.05 59 1005.5
20260505023732 55 114 4.0 14.0 0.00 0.05 0.05 62 1005.7
20260505023229 56 110 2.0 13.0 0.00 0.05 0.05 61 1005.9
20260505022727 55 107 20.0 20.0 0.00 0.05 0.05 61 1006.0
20260505022224 56 122 4.0 12.0 0.00 0.05 0.05 60 1005.9
20260505021720 56 6 3.0 12.0 0.00 0.05 0.05 62 1006.2
20260505021217 55 191 6.0 17.0 0.00 0.05 0.05 62 1006.5
20260505020713 55 142 9.0 12.0 0.00 0.05 0.05 62 1006.6
20260505020208 54 159 10.0 17.0 0.00 0.05 0.05 64 1006.6
20260505015706 54 144 2.0 15.0 0.00 0.05 0.05 63 1006.4
20260505015203 56 184 17.0 17.0 0.00 0.05 0.05 62 1006.3
20260505014700 55 141 7.0 12.0 0.00 0.05 0.05 63 1007.0
20260505014157 54 159 7.0 14.0 0.00 0.05 0.05 63 1006.8
20260505013654 54 144 9.0 15.0 0.00 0.05 0.05 62 1006.8
20260505013151 53 159 8.0 13.0 0.00 0.05 0.05 66 1006.8
20260505012649 53 105 2.0 16.0 0.00 0.05 0.05 67 1006.9
20260505012146 53 168 4.0 15.0 0.00 0.05 0.05 68 1006.6
20260505011641 52 139 2.0 21.0 0.00 0.05 0.05 68 1006.7
20260505011134 53 137 3.0 17.0 0.00 0.05 0.05 66 1006.9
20260505010633 54 147 5.0 14.0 0.00 0.05 0.05 66 1007.0
20260505010131 54 111 8.0 11.0 0.00 0.05 0.05 63 1006.8
20260505005627 55 350 2.0 18.0 0.00 0.05 0.05 62 1007.2
20260505005124 55 103 2.0 23.0 0.00 0.05 0.05 61 1007.1
20260505004621 55 173 5.0 15.0 0.00 0.05 0.05 62 1007.5
20260505004118 55 150 8.0 11.0 0.00 0.05 0.05 60 1007.7
20260505003615 55 155 7.0 14.0 0.00 0.05 0.05 61 1007.9
20260505003113 55 270 2.0 11.0 0.00 0.05 0.05 61 1008.1
20260505002608 56 118 5.0 16.0 0.00 0.05 0.05 60 1008.3
20260505002107 56 139 5.0 11.0 0.00 0.05 0.05 60 1008.0
20260505001604 56 15 2.0 7.0 0.00 0.05 0.05 58 1008.3
20260505001101 56 154 7.0 18.0 0.00 0.05 0.05 58 1008.2
20260505000558 56 77 1.0 13.0 0.00 0.05 0.05 58 1008.3
20260505000056 57 171 5.0 17.0 0.00 0.05 0.05 56 1008.3
20260504235552 58 75 6.0 9.0 0.00 0.05 0.05 58 1008.6
20260504235049 58 81 0.0 12.0 0.00 0.05 0.05 57 1008.5
20260504234546 56 259 3.0 15.0 0.00 0.05 0.05 59 1008.5
20260504234043 57 8 2.0 13.0 0.00 0.05 0.05 59 1008.4
20260504233538 57 128 4.0 14.0 0.00 0.05 0.05 58 1008.5
20260504233035 58 156 11.0 17.0 0.00 0.05 0.05 56 1008.3
20260504232532 58 153 6.0 19.0 0.00 0.05 0.05 56 1008.6
20260504232030 57 142 5.0 20.0 0.00 0.05 0.05 58 1008.6
20260504231526 57 175 6.0 19.0 0.00 0.05 0.05 58 1008.6
20260504231022 57 153 7.0 17.0 0.00 0.05 0.05 58 1008.7
20260504230519 58 148 4.0 18.0 0.00 0.05 0.05 58 1008.8
20260504230018 57 153 4.0 17.0 0.00 0.05 0.05 59 1009.0
20260504225515 58 158 6.0 20.0 0.00 0.05 0.05 56 1009.0
20260504225012 57 155 5.0 13.0 0.00 0.05 0.05 57 1009.1
20260504224508 58 149 8.0 17.0 0.00 0.05 0.05 57 1009.3
20260504224005 57 202 5.0 16.0 0.00 0.05 0.05 58 1009.3
20260504223502 57 185 11.0 18.0 0.00 0.05 0.05 58 1009.2
20260504222957 57 181 7.0 19.0 0.00 0.05 0.05 57 1009.7
20260504222455 56 90 5.0 18.0 0.00 0.05 0.05 58 1009.6
20260504221952 57 334 4.0 8.0 0.00 0.05 0.05 60 1009.8
20260504221449 56 66 6.0 14.0 0.00 0.05 0.05 61 1009.8
20260504220946 56 160 5.0 13.0 0.00 0.05 0.05 61 1010.0
20260504220443 55 180 1.0 11.0 0.00 0.05 0.05 63 1010.1
20260504215940 55 193 3.0 10.0 0.00 0.05 0.05 63 1010.2
20260504215436 55 29 1.0 11.0 0.00 0.05 0.05 63 1010.3
20260504214933 54 118 3.0 6.0 0.00 0.05 0.05 63 1010.4
20260504214429 53 98 5.0 12.0 0.00 0.05 0.05 62 1010.2
20260504213926 53 119 2.0 8.0 0.00 0.05 0.05 65 1010.5
20260504213422 52 175 9.0 9.0 0.00 0.05 0.05 64 1010.6
20260504212920 52 157 8.0 17.0 0.00 0.05 0.05 64 1010.7
20260504212415 51 33 3.0 14.0 0.00 0.05 0.05 65 1010.5
20260504211914 51 64 3.0 10.0 0.00 0.05 0.05 66 1010.8
20260504211409 51 74 3.0 16.0 0.00 0.05 0.05 66 1010.9
20260504210907 51 86 0.0 9.0 0.00 0.05 0.05 68 1011.0
20260504210404 50 291 1.0 13.0 0.00 0.05 0.05 68 1011.1
20260504205901 50 101 6.0 21.0 0.00 0.05 0.05 66 1011.4
20260504205359 50 276 3.0 17.0 0.00 0.05 0.05 67 1011.3
20260504204857 50 153 6.0 11.0 0.00 0.05 0.05 68 1011.6
20260504204354 50 14 0.0 10.0 0.00 0.05 0.05 69 1011.6
20260504203854 50 145 1.0 17.0 0.00 0.05 0.05 69 1011.9
20260504203350 49 127 4.0 17.0 0.00 0.05 0.05 69 1012.0
20260504202846 50 144 7.0 14.0 0.00 0.05 0.05 69 1012.1
20260504202343 50 93 4.0 18.0 0.00 0.05 0.05 69 1012.2
20260504201840 50 101 2.0 9.0 0.00 0.05 0.05 70 1012.6
20260504201337 49 108 5.0 11.0 0.00 0.05 0.05 70 1012.6
20260504200835 49 105 0.0 13.0 0.00 0.05 0.05 70 1012.8
20260504200331 49 195 2.0 13.0 0.00 0.05 0.05 71 1012.9
20260504195827 48 158 4.0 15.0 0.00 0.05 0.05 73 1013.1
20260504195323 48 246 1.0 20.0 0.00 0.05 0.05 73 1013.1
20260504194820 48 143 0.0 10.0 0.00 0.05 0.05 73 1013.2
20260504194316 48 101 0.0 13.0 0.00 0.05 0.05 74 1013.2
20260504193812 48 160 0.0 7.0 0.00 0.05 0.05 74 1013.2
20260504193310 48 138 3.0 9.0 0.00 0.05 0.05 74 1013.3
20260504192808 48 20 3.0 10.0 0.00 0.05 0.05 75 1013.2
20260504192306 47 33 3.0 8.0 0.00 0.05 0.05 77 1013.5
20260504191804 47 41 5.0 12.0 0.00 0.05 0.05 77 1013.8
20260504191301 47 124 2.0 16.0 0.00 0.05 0.05 77 1013.5
20260504190757 47 166 12.0 20.0 0.00 0.05 0.05 77 1014.0
20260504190253 46 148 10.0 13.0 0.00 0.05 0.05 80 1013.9
20260504185750 46 137 8.0 12.0 0.02 0.05 0.05 81 1013.8
20260504185247 45 176 6.0 11.0 0.02 0.05 0.05 84 1014.1
20260504184743 45 184 4.0 11.0 0.02 0.05 0.05 85 1014.0
20260504184239 45 90 2.0 8.0 0.02 0.05 0.05 85 1014.0
20260504183735 45 128 11.0 14.0 0.02 0.04 0.04 84 1014.1
20260504183232 45 64 6.0 16.0 0.00 0.04 0.04 84 1014.4
20260504182730 46 155 4.0 12.0 0.00 0.04 0.04 83 1014.4
20260504182227 46 190 7.0 14.0 0.00 0.04 0.04 81 1014.5
20260504181725 46 93 6.0 15.0 0.00 0.04 0.04 80 1014.6
20260504181222 46 142 6.0 11.0 0.00 0.04 0.04 80 1014.5
20260504180721 46 146 3.0 15.0 0.00 0.04 0.04 79 1014.6
20260504180219 46 186 1.0 9.0 0.00 0.04 0.04 79 1014.7
20260504175716 46 169 5.0 12.0 0.00 0.04 0.04 79 1014.8
20260504175213 46 141 6.0 11.0 0.00 0.04 0.04 78 1015.0
20260504174711 46 157 3.0 13.0 0.00 0.04 0.04 78 1014.8
20260504174209 46 153 13.0 13.0 0.00 0.04 0.04 78 1014.9
20260504173704 46 50 3.0 24.0 0.00 0.04 0.04 79 1014.8
20260504173202 46 146 6.0 21.0 0.00 0.04 0.04 79 1014.9
20260504172658 46 188 6.0 17.0 0.00 0.04 0.04 78 1015.0
20260504172155 46 174 5.0 18.0 0.00 0.04 0.04 79 1015.1
20260504171651 46 6 3.0 20.0 0.00 0.04 0.04 79 1015.1
20260504171148 46 79 0.0 16.0 0.00 0.04 0.04 79 1015.1
20260504170645 46 132 2.0 18.0 0.00 0.04 0.04 79 1015.0
20260504170142 46 178 14.0 21.0 0.00 0.04 0.04 79 1015.1
20260504151033 45 127 4.0 10.0 0.00 0.04 0.04 79 1016.0
20260504150531 45 227 6.0 8.0 0.00 0.04 0.04 78 1016.0
20260504140956 46 102 4.0 16.0 0.00 0.04 0.04 78 1016.4
20260504140453 45 165 5.0 11.0 0.00 0.04 0.04 78 1016.7